When you browse on this site, cookies collect data to enhance your experience and personalize the content and advertising you see.
Visit our Privacy Policy to learn more. By continuing to use the site, you agree to this use of cookies and data.
  • en Suisse
  • Liste des pays
  • À 7 jours
  • Température de l'eau
  • Carte satellitaire
  • Carte météo
  • Widgets météo
  • user-avatar
    Se connecter

    Météo par heure à Albany

    Ce jour, 22 Janvier, Mardi

    Heure Température Précipitation Vent Pression Humidité
    00:00 +20°C° 0.1 mm 3 m/s 755 mmHg 81%
    01:00 +19°C° 0.1 mm 3 m/s 755 mmHg 83%
    02:00 +19°C° 0 mm 3 m/s 754 mmHg 85%
    03:00 +19°C° 0.1 mm 3 m/s 754 mmHg 86%
    04:00 +19°C° 0.1 mm 4 m/s 754 mmHg 87%
    05:00 +19°C° 0.1 mm 5 m/s 754 mmHg 88%
    06:00 +19°C° 0.1 mm 5 m/s 754 mmHg 87%
    07:00 +19°C° 0.1 mm 6 m/s 754 mmHg 86%
    08:00 +19°C° 0.1 mm 6 m/s 754 mmHg 85%
    09:00 +18°C° 0.1 mm 7 m/s 754 mmHg 84%
    10:00 +18°C° 0.1 mm 7 m/s 754 mmHg 83%
    11:00 +18°C° 0.1 mm 7 m/s 754 mmHg 83%
    12:00 +18°C° 0.2 mm 7 m/s 754 mmHg 81%
    13:00 +18°C° 0.2 mm 7 m/s 753 mmHg 80%
    14:00 +20°C° 0.2 mm 7 m/s 753 mmHg 79%
    15:00 +20°C° 0.1 mm 7 m/s 752 mmHg 78%
    16:00 +20°C° 0.1 mm 7 m/s 751 mmHg 78%
    17:00 +20°C° 0.1 mm 8 m/s 751 mmHg 78%
    18:00 +20°C° 0.1 mm 8 m/s 750 mmHg 79%
    19:00 +20°C° 0.1 mm 8 m/s 750 mmHg 80%
    20:00 +20°C° 0.1 mm 7 m/s 750 mmHg 82%
    21:00 +20°C° 0.1 mm 7 m/s 750 mmHg 84%
    22:00 +20°C° 0.1 mm 7 m/s 749 mmHg 85%
    23:00 +20°C° 0.1 mm 7 m/s 749 mmHg 87%

    Demain, 23 Janvier, Mercredi

    Heure Température Précipitation Vent Pression Humidité
    00:00 +20°C° 0.2 mm 6 m/s 748 mmHg 88%
    01:00 +20°C° 0.2 mm 6 m/s 747 mmHg 89%
    02:00 +21°C° 0.2 mm 6 m/s 746 mmHg 90%
    03:00 +21°C° 0.1 mm 6 m/s 746 mmHg 91%
    04:00 +21°C° 0.1 mm 5 m/s 745 mmHg 91%
    05:00 +21°C° 0.1 mm 5 m/s 745 mmHg 92%
    06:00 +20°C° 0.3 mm 6 m/s 745 mmHg 83%
    07:00 +20°C° 0.3 mm 7 m/s 745 mmHg 74%
    08:00 +20°C° 0.3 mm 7 m/s 745 mmHg 65%
    09:00 +22°C° 0 mm 7 m/s 745 mmHg 55%
    10:00 +23°C° 0 mm 7 m/s 744 mmHg 46%
    11:00 +26°C° 0 mm 7 m/s 744 mmHg 37%
    12:00 +24°C° 0 mm 7 m/s 743 mmHg 38%
    13:00 +23°C° 0 mm 8 m/s 743 mmHg 39%
    14:00 +23°C° 0 mm 8 m/s 742 mmHg 39%
    15:00 +24°C° 0 mm 8 m/s 742 mmHg 40%
    16:00 +24°C° 0 mm 7 m/s 741 mmHg 40%
    17:00 +26°C° 0 mm 7 m/s 741 mmHg 41%
    18:00 +23°C° 0.2 mm 7 m/s 742 mmHg 49%
    19:00 +21°C° 0.2 mm 8 m/s 742 mmHg 56%
    20:00 +20°C° 0.2 mm 8 m/s 743 mmHg 64%
    21:00 +18°C° 0 mm 8 m/s 744 mmHg 68%
    22:00 +18°C° 0 mm 7 m/s 745 mmHg 72%
    23:00 +18°C° 0 mm 7 m/s 745 mmHg 76%

    Après-demain, 24 Janvier, Jeudi

    Heure Température Précipitation Vent Pression Humidité
    00:00 +18°C° 0.2 mm 8 m/s 746 mmHg 76%
    01:00 +18°C° 0.2 mm 9 m/s 746 mmHg 76%
    02:00 +18°C° 0.2 mm 10 m/s 746 mmHg 76%
    03:00 +18°C° 0.1 mm 10 m/s 747 mmHg 76%
    04:00 +18°C° 0.1 mm 10 m/s 748 mmHg 75%
    05:00 +18°C° 0.1 mm 11 m/s 749 mmHg 75%
    06:00 +18°C° 0.1 mm 10 m/s 750 mmHg 75%
    07:00 +18°C° 0.1 mm 10 m/s 751 mmHg 75%
    08:00 +18°C° 0.1 mm 9 m/s 752 mmHg 75%
    09:00 +17°C° 0.1 mm 9 m/s 753 mmHg 74%
    10:00 +17°C° 0.1 mm 8 m/s 754 mmHg 74%
    11:00 +17°C° 0.1 mm 8 m/s 755 mmHg 73%
    12:00 +17°C° 0.1 mm 8 m/s 755 mmHg 71%
    13:00 +17°C° 0.1 mm 8 m/s 755 mmHg 69%
    14:00 +17°C° 0.1 mm 8 m/s 755 mmHg 67%
    15:00 +17°C° 0 mm 7 m/s 756 mmHg 65%
    16:00 +17°C° 0 mm 7 m/s 756 mmHg 63%
    17:00 +17°C° 0 mm 7 m/s 756 mmHg 61%
    18:00 +16°C° 0 mm 6 m/s 756 mmHg 64%
    19:00 +15°C° 0 mm 6 m/s 757 mmHg 67%
    20:00 +15°C° 0 mm 6 m/s 758 mmHg 70%
    21:00 +15°C° 0 mm 5 m/s 758 mmHg 69%
    22:00 +15°C° 0 mm 4 m/s 758 mmHg 68%
    23:00 +16°C° 0 mm 3 m/s 758 mmHg 68%

    25 Janvier, Vendredi

    Heure Température Précipitation Vent Pression Humidité
    00:00 +14°C° 0 mm 3 m/s 758 mmHg 69%
    01:00 +15°C° 0 mm 2 m/s 758 mmHg 71%
    02:00 +15°C° 0 mm 2 m/s 758 mmHg 72%
    03:00 +15°C° 0 mm 2 m/s 758 mmHg 73%
    04:00 +15°C° 0 mm 2 m/s 758 mmHg 73%
    05:00 +15°C° 0 mm 1 m/s 758 mmHg 74%
    06:00 +16°C° 0 mm 1 m/s 758 mmHg 68%
    07:00 +18°C° 0 mm 1 m/s 759 mmHg 63%
    08:00 +19°C° 0 mm 1 m/s 759 mmHg 58%
    09:00 +20°C° 0 mm 1 m/s 759 mmHg 53%
    10:00 +21°C° 0 mm 2 m/s 759 mmHg 47%
    11:00 +23°C° 0 mm 2 m/s 759 mmHg 42%
    12:00 +24°C° 0 mm 2 m/s 758 mmHg 42%
    13:00 +24°C° 0 mm 3 m/s 758 mmHg 42%
    14:00 +23°C° 0 mm 4 m/s 757 mmHg 41%
    15:00 +22°C° 0 mm 4 m/s 757 mmHg 46%
    16:00 +21°C° 0 mm 4 m/s 757 mmHg 50%
    17:00 +20°C° 0 mm 4 m/s 757 mmHg 54%
    18:00 +19°C° 0 mm 4 m/s 757 mmHg 59%
    19:00 +18°C° 0 mm 3 m/s 758 mmHg 63%
    20:00 +17°C° 0 mm 3 m/s 758 mmHg 68%
    21:00 +17°C° 0 mm 3 m/s 758 mmHg 71%
    22:00 +17°C° 0 mm 3 m/s 758 mmHg 73%
    23:00 +17°C° 0 mm 3 m/s 759 mmHg 75%

    26 Janvier, Samedi

    Heure Température Précipitation Vent Pression Humidité
    00:00 +17°C° 0 mm 3 m/s 758 mmHg 75%
    01:00 +16°C° 0 mm 3 m/s 758 mmHg 76%
    02:00 +15°C° 0 mm 4 m/s 758 mmHg 76%
    03:00 +15°C° 0 mm 4 m/s 758 mmHg 77%
    04:00 +14°C° 0 mm 4 m/s 758 mmHg 78%
    05:00 +14°C° 0 mm 4 m/s 758 mmHg 79%
    06:00 +15°C° 0 mm 4 m/s 759 mmHg 75%
    07:00 +17°C° 0 mm 4 m/s 759 mmHg 71%
    08:00 +17°C° 0 mm 5 m/s 760 mmHg 67%
    09:00 +18°C° 0 mm 4 m/s 760 mmHg 64%
    10:00 +18°C° 0 mm 4 m/s 760 mmHg 62%
    11:00 +19°C° 0 mm 4 m/s 760 mmHg 60%
    12:00 +19°C° 0 mm 4 m/s 760 mmHg 57%
    13:00 +20°C° 0 mm 4 m/s 760 mmHg 54%
    14:00 +21°C° 0 mm 4 m/s 759 mmHg 51%
    15:00 +20°C° 0 mm 4 m/s 760 mmHg 53%
    16:00 +20°C° 0 mm 4 m/s 760 mmHg 54%
    17:00 +20°C° 0 mm 4 m/s 760 mmHg 56%
    18:00 +18°C° 0 mm 4 m/s 760 mmHg 61%
    19:00 +17°C° 0 mm 3 m/s 761 mmHg 66%
    20:00 +14°C° 0 mm 3 m/s 761 mmHg 71%
    21:00 +14°C° 0 mm 3 m/s 761 mmHg 72%
    22:00 +15°C° 0 mm 2 m/s 761 mmHg 74%
    23:00 +14°C° 0 mm 2 m/s 761 mmHg 75%

    27 Janvier, Dimanche

    Heure Température Précipitation Vent Pression Humidité
    00:00 +14°C° 0 mm 2 m/s 761 mmHg 76%
    01:00 +14°C° 0 mm 2 m/s 761 mmHg 77%
    02:00 +14°C° 0 mm 2 m/s 760 mmHg 77%
    03:00 +14°C° 0 mm 1 m/s 760 mmHg 78%
    04:00 +13°C° 0 mm 1 m/s 760 mmHg 80%
    05:00 +13°C° 0 mm 1 m/s 760 mmHg 81%
    06:00 +15°C° 0 mm 1 m/s 761 mmHg 72%
    07:00 +16°C° 0 mm 0 m/s 761 mmHg 64%
    08:00 +18°C° 0 mm 0 m/s 761 mmHg 55%
    09:00 +22°C° 0 mm 1 m/s 761 mmHg 49%
    10:00 +24°C° 0 mm 1 m/s 760 mmHg 43%
    11:00 +25°C° 0 mm 2 m/s 760 mmHg 37%
    12:00 +25°C° 0 mm 3 m/s 759 mmHg 38%
    13:00 +25°C° 0 mm 3 m/s 759 mmHg 40%
    14:00 +25°C° 0 mm 4 m/s 758 mmHg 41%
    15:00 +25°C° 0 mm 4 m/s 758 mmHg 43%
    16:00 +23°C° 0 mm 4 m/s 758 mmHg 46%
    17:00 +22°C° 0 mm 4 m/s 757 mmHg 48%
    18:00 +20°C° 0 mm 3 m/s 758 mmHg 54%
    19:00 +19°C° 0 mm 2 m/s 758 mmHg 61%
    20:00 +17°C° 0 mm 2 m/s 758 mmHg 67%
    21:00 +18°C° 0 mm 1 m/s 758 mmHg 71%
    22:00 +16°C° 0 mm 1 m/s 757 mmHg 75%
    23:00 +15°C° 0 mm 0 m/s 757 mmHg 79%
    Voir plus